Weather History for 94203 - December, 2013

Change the Weather History Date:

Monday, December 9, 2013

  Actual Average Record
Temperature  
Mean Temperature 89 °F -  
Max Temperature 95 °F 93 °F - ()
Min Temperature 83 °F 80 °F - ()
Cooling Degree Days 24    
Growing Degree Days 39 (Base 50)    
Moisture  
Dew Point 75 °F    
Average Humidity 65    
Maximum Humidity 79    
Minimum Humidity 39    
Precipitation  
Precipitation 0.00 in 0.12 in - ()
Sea Level Pressure  
Sea Level Pressure 29.77 in    
Wind  
Wind Speed 9 mph ()    
Max Wind Speed 16 mph    
Max Gust Speed -    
Visibility 8.0 miles    
Events      
T = Trace of Precipitation, MM = Missing Value Source: Averaged Metar Reports

Daily Weather History Graph

Daily Weather History Graph

Search for Another Location

Airport or City:

Trip Planner

Search our weather history database for the weather conditions in past years. The results will help you decide how hot, cold, wet, or windy it might be!

Date:

Astronomy

Dec. 09, 2013 Rise Set
Actual Time 5:08 AM AWST 6:18 PM AWST
Civil Twilight 4:44 AM AWST 6:42 PM AWST
Nautical Twilight 4:15 AM AWST 7:11 PM AWST
Astronomical Twilight 3:46 AM AWST 7:40 PM AWST
Moon 11:18 AM AWST (12/9) 11:47 PM AWST (12/9)
Length of Visible Light 13h 58m
Length of Day
13h 10m
Waxing Crescent, 45% of the Moon is Illuminated
Dec 9
Waxing Crescent
Dec 9
First Quarter
Dec 17
Full
Dec 25
Last Quarter
Jan 1
New

Hourly Weather History & Observations

Time (AWST) Temp. Heat Index Dew Point Humidity Pressure Visibility Wind Dir Wind Speed Gust Speed Precip Events Conditions
12:00 AM 85 °F - 74 °F 63% 29.81 in - WSW 8.1 mph - -  
12:00 AM 84.2 °F 90.9 °F 73.4 °F 70% 29.80 in 6.2 mi WSW 8.1 mph - N/A   Unknown
12:30 AM 84.2 °F 92.3 °F 75.2 °F 74% 29.80 in 6.2 mi SW 8.1 mph - N/A   Unknown
1:00 AM 84.2 °F 92.3 °F 75.2 °F 74% 29.77 in 6.2 mi WSW 8.1 mph - N/A   Mostly Cloudy
1:30 AM 84.2 °F 92.3 °F 75.2 °F 74% 29.77 in 6.2 mi WSW 8.1 mph - N/A   Overcast
2:00 AM 84 °F - 76 °F 70% 29.79 in - WSW 8.1 mph - -  
2:00 AM 84.2 °F 92.3 °F 75.2 °F 74% 29.77 in 6.2 mi WSW 8.1 mph - N/A   Scattered Clouds
2:30 AM 84.2 °F 92.3 °F 75.2 °F 74% 29.77 in 6.2 mi WSW 5.8 mph - N/A   Scattered Clouds
3:00 AM 84 °F - 76 °F 70% 29.79 in - SW 8.1 mph - -  
3:00 AM 84.2 °F 92.3 °F 75.2 °F 74% 29.77 in 6.2 mi SW 8.1 mph - N/A   Scattered Clouds
3:30 AM 84.2 °F 92.3 °F 75.2 °F 74% 29.77 in 6.2 mi WSW 8.1 mph - N/A   Unknown
4:00 AM 84.2 °F 94.1 °F 77.0 °F 79% 29.77 in 6.2 mi SW 8.1 mph - N/A   Unknown
4:30 AM 84.2 °F 94.1 °F 77.0 °F 79% 29.77 in 6.2 mi SW 6.9 mph - N/A   Unknown
5:00 AM 83 °F - 76 °F 75% 29.79 in - SSW 5.8 mph - -  
5:00 AM 84.2 °F 94.1 °F 77.0 °F 79% 29.77 in 6.2 mi SSW 5.8 mph - N/A   Unknown
5:30 AM 84.2 °F 94.1 °F 77.0 °F 79% 29.80 in - SW 6.9 mph - N/A   Clear
6:00 AM 85 °F - 76 °F 69% 29.81 in 19 mi SSW 8.1 mph - -   Partly Cloudy
6:00 AM 86.0 °F 96.9 °F 77.0 °F 74% 29.80 in - SSW 8.1 mph - N/A   Clear
6:30 AM 86.0 °F 96.9 °F 77.0 °F 74% 29.80 in - SSW 10.4 mph - N/A   Clear
7:00 AM 86.0 °F 96.9 °F 77.0 °F 74% 29.80 in - South 10.4 mph - N/A   Clear
7:30 AM 86.0 °F 96.9 °F 77.0 °F 74% 29.83 in - South 9.2 mph - N/A   Clear
8:00 AM 87 °F - 78 °F 68% 29.83 in - South 8.1 mph - -  
8:00 AM 86.0 °F 99.3 °F 78.8 °F 79% 29.83 in - South 8.1 mph - N/A   Clear
8:30 AM 87.8 °F 99.7 °F 77.0 °F 70% 29.83 in 6.2 mi South 9.2 mph - N/A   Partly Cloudy
9:00 AM 90 °F - 73 °F 48% 29.83 in 19 mi SSW 8.1 mph - -   Partly Cloudy
9:00 AM 91.4 °F 100.1 °F 73.4 °F 55% 29.83 in - SSW 8.1 mph - N/A   Clear
9:30 AM 93.2 °F 98.8 °F 69.8 °F 46% 29.83 in - SW 11.5 mph - N/A   Clear
10:00 AM 91.4 °F 100.1 °F 73.4 °F 55% 29.80 in 6.2 mi SW 11.5 mph - N/A   Partly Cloudy
10:30 AM 93.2 °F 105.0 °F 75.2 °F 56% 29.80 in 6.2 mi WSW 10.4 mph - N/A   Unknown
11:00 AM 92 °F - 74 °F 47% 29.81 in - West 11.5 mph - -  
11:00 AM 93.2 °F 102.4 °F 73.4 °F 52% 29.80 in 6.2 mi West 11.5 mph - N/A   Unknown
11:30 AM 93.2 °F 105.0 °F 75.2 °F 56% 29.80 in 6.2 mi West 11.5 mph - N/A   Partly Cloudy
12:00 PM 94 °F - 72 °F 39% 29.79 in 19 mi West 12.7 mph - -   Partly Cloudy
12:00 PM 95.0 °F 103.2 °F 71.6 °F 47% 29.77 in 6.2 mi West 12.7 mph - N/A   Partly Cloudy
12:30 PM 93.2 °F 100.5 °F 71.6 °F 49% 29.77 in 6.2 mi West 13.8 mph - N/A   Partly Cloudy
1:00 PM 93.2 °F 102.4 °F 73.4 °F 52% 29.77 in 6.2 mi West 13.8 mph - N/A   Partly Cloudy
1:30 PM 93.2 °F 105.0 °F 75.2 °F 56% 29.74 in 6.2 mi West 15.0 mph - N/A   Partly Cloudy
2:00 PM 92 °F - 73 °F 44% 29.74 in - West 15.0 mph - -  
2:00 PM 93.2 °F 102.4 °F 73.4 °F 52% 29.74 in 6.2 mi West 15.0 mph - N/A   Partly Cloudy
2:30 PM 93.2 °F 105.0 °F 75.2 °F 56% 29.71 in 6.2 mi West 16.1 mph - N/A   Partly Cloudy
3:00 PM 93 °F - 75 °F 46% 29.71 in 22 mi West 15.0 mph - -   Scattered Clouds
3:00 PM 93.2 °F 105.0 °F 75.2 °F 56% 29.71 in 6.2 mi West 15.0 mph - N/A   Partly Cloudy
3:30 PM 91.4 °F 102.5 °F 75.2 °F 59% 29.71 in 6.2 mi West 13.8 mph - N/A   Partly Cloudy
4:00 PM 91.4 °F 102.5 °F 75.2 °F 59% 29.71 in 6.2 mi West 13.8 mph - N/A   Partly Cloudy
4:30 PM 89.6 °F 102.2 °F 77.0 °F 66% 29.71 in - WSW 15.0 mph - N/A   Clear
5:00 PM 90 °F - 77 °F 57% 29.72 in - West 15.0 mph - -  
5:00 PM 89.6 °F 102.2 °F 77.0 °F 66% 29.71 in - West 15.0 mph - N/A   Clear
5:30 PM 87.8 °F 97.6 °F 75.2 °F 66% 29.71 in - West 13.8 mph - N/A   Clear
6:00 PM 88 °F - 76 °F 61% 29.73 in 19 mi WSW 12.7 mph - -   Scattered Clouds
6:00 PM 87.8 °F 99.7 °F 77.0 °F 70% 29.71 in 6.2 mi WSW 12.7 mph - N/A   Scattered Clouds
6:30 PM 87.8 °F 99.7 °F 77.0 °F 70% 29.74 in - West 10.4 mph - N/A   Clear
7:00 PM 87.8 °F 99.7 °F 77.0 °F 70% 29.74 in - West 8.1 mph - N/A   Clear
7:30 PM 86.0 °F 96.9 °F 77.0 °F 74% 29.74 in - West 10.4 mph - N/A   Clear
8:00 PM 87 °F - 77 °F 65% 29.77 in - West 8.1 mph - -  
8:00 PM 86.0 °F 96.9 °F 77.0 °F 74% 29.77 in - West 8.1 mph - N/A   Clear
8:30 PM 86.0 °F 96.9 °F 77.0 °F 74% 29.77 in - West 8.1 mph - N/A   Clear
9:00 PM 87 °F - 76 °F 64% 29.78 in 19 mi West 6.9 mph - -   Partly Cloudy
9:00 PM 86.0 °F 96.9 °F 77.0 °F 74% 29.77 in - West 6.9 mph - N/A   Clear
9:30 PM 86.0 °F 96.9 °F 77.0 °F 74% 29.77 in 6.2 mi WSW 5.8 mph - N/A   Mostly Cloudy
10:00 PM 86.0 °F 95.1 °F 75.2 °F 70% 29.77 in 6.2 mi West 6.9 mph - N/A   Scattered Clouds
10:30 PM 86.0 °F 95.1 °F 75.2 °F 70% 29.74 in 6.2 mi West 6.9 mph - N/A   Scattered Clouds
11:00 PM 86 °F - 75 °F 63% 29.75 in - West 8.1 mph - -  
11:00 PM 86.0 °F 95.1 °F 75.2 °F 70% 29.74 in 6.2 mi West 8.1 mph - N/A   Mostly Cloudy
11:30 PM 86.0 °F 95.1 °F 75.2 °F 70% 29.74 in 6.2 mi WSW 8.1 mph - N/A   Unknown